#timestamp,LO_Frequency,Hit,StdDev 
1547726415.8,286046999.0,N
1547726435.7,286046996.6,N
1547726455.5,286046997.4,N
1547726475.3,286046999.5,N
1547726495.2,286046999.6,N
1547726515.9,286046999.2,N
1547726535.7,286046997.1,N
1547726555.6,286046999.6,N
1547726575.4,286046996.7,N
1547726595.3,286046995.8,Y
1547726615.1,286046997.1,P
1547726616.0,286046997.1,P
1547726635.8,286046999.6,N
1547726655.7,286046997.1,N
1547726675.5,286046995.5,Y
1547726695.3,286046998.7,P
1547726715.2,286047000.8,N
1547726735.0,286047000.8,N
1547726735.9,286047000.8,N
1547726755.8,286047000.7,N
1547726775.6,286046998.8,N
1547726795.4,286046999.2,N
1547726815.3,286046999.4,N
1547726835.1,286046999.2,N
1547726855.9,286046998.4,N
1547726875.7,286046999.3,N
1547726895.5,286046998.7,N
1547726915.4,286047000.0,N
1547726935.2,286046998.7,N
1547726955.0,286046998.1,N
1547726955.9,286046998.1,N
1547726975.8,286047000.3,N
1547726995.6,286046998.4,N
1547727015.5,286047001.2,N
1547727035.3,286047000.8,N
1547727055.1,286046998.6,N
1547727075.9,286046999.0,N
1547727095.7,286047002.0,N
1547727115.5,286047000.1,N
1547727135.4,286047001.2,N
1547727155.2,286047000.2,N
1547727175.1,286047000.2,N
1547727176.0,286047000.2,N
1547727195.8,286046999.4,N
1547727215.6,286046998.5,N
1547727235.5,286046996.6,Y
1547727255.3,286046996.8,P
1547727275.1,286046996.5,N
1547727295.9,286046995.3,P
1547727315.7,286046998.9,N
1547727335.6,286047000.9,N
1547727355.4,286047000.2,N
1547727375.2,286047000.2,N
1547727395.1,286047002.4,N
1547727396.0,286047002.4,N
1547727415.8,286046998.4,N
1547727435.6,286046999.8,N
1547727455.5,286046999.8,N
1547727475.3,286046998.1,N
1547727495.2,286046999.3,N
1547727515.9,286046999.3,N
1547727535.7,286046997.1,N
1547727555.6,286046995.0,N
1547727575.4,286046998.4,N
1547727595.2,286046999.5,N
1547727615.1,286046996.8,N
1547727616.0,286046996.8,N
1547727635.8,286046997.2,N
1547727655.7,286046995.0,N
1547727675.5,286046997.9,N
1547727695.3,286046997.9,N
1547727715.2,286046997.9,N
1547727735.9,286047000.9,N
1547727755.7,286047000.4,N
1547727775.6,286046998.7,N
1547727795.4,286047000.7,N
1547727815.2,286047000.4,N
1547727835.1,286047000.6,N
1547727836.0,286047000.6,N
1547727855.8,286046998.4,N
1547727875.7,286046999.0,N
1547727895.5,286046999.2,N
1547727915.3,286046997.2,N
1547727935.2,286046996.5,N
1547727955.0,286046996.7,N
1547727955.9,286046996.7,N
1547727975.7,286046997.5,N
1547727995.6,286046997.5,N
1547728015.4,286046995.3,N
1547728035.3,286046997.2,N
1547728055.1,286046998.0,N
1547728056.0,286046998.0,N
1547728105.9,286046993.6,E
1547728115.8,286046997.7,N
1547728135.6,286047000.4,P
1547728155.5,286047004.1,P
1547728175.3,286047001.3,N
1547728195.1,286047003.5,N
1547728215.9,286047004.4,N
1547728235.7,286047003.4,N
1547728255.6,286047007.2,Y
1547728275.4,286047002.3,P
1547728295.2,286047000.0,N
1547728315.1,286047000.0,N
1547728316.0,286047000.0,N
1547728335.8,286047002.6,N
1547728355.6,286047001.6,N
1547728375.5,286047002.8,N
1547728395.3,286047000.8,N
1547728415.2,286046998.3,N
1547728435.9,286047000.8,N
1547728455.7,286046998.6,N
1547728475.6,286047000.6,N
1547728495.4,286047001.0,N
1547728515.2,286047000.2,N
1547728535.1,286047002.2,N
1547728536.0,286047002.2,N
1547728555.8,286047002.2,N
1547728575.7,286047001.4,N
1547728595.5,286047003.7,N
1547728645.3,286047001.4,E
1547728655.3,286047001.7,N
1547728675.1,286047002.5,P
1547728676.0,286047002.5,P
1547728695.8,286047002.7,Y
1547728715.7,286046998.1,P
1547728735.5,286046998.4,N
1547728755.3,286046997.0,N
1547728775.2,286046996.5,N
1547728795.0,286046997.4,N
1547728795.9,286046997.4,N
1547728815.8,286046995.4,N
1547728835.6,286046994.9,N
1547728855.4,286046997.5,N
1547728875.3,286046999.1,N
1547728895.1,286046998.4,N
1547728915.8,286046996.7,N
1547728935.7,286046996.7,N
1547728955.5,286046996.6,N
1547728975.4,286046999.0,N
1547728995.2,286046996.5,N
1547729015.0,286046999.1,N
1547729015.9,286046999.1,N
1547729035.8,286046998.4,N
1547729055.6,286046999.0,N
1547729075.4,286046998.5,N
1547729095.3,286046998.3,N
1547729115.1,286047002.8,N
1547729135.9,286047000.5,N
1547729155.7,286047000.3,N
1547729175.5,286046999.4,N
1547729195.4,286046999.6,N
1547729215.2,286046997.0,N
1547729235.0,286046998.0,N
1547729235.9,286046998.0,N
1547729255.8,286046996.9,N
1547729275.6,286046998.0,N
1547729295.5,286046993.8,Y
1547729315.3,286046995.4,P
1547729335.1,286046997.9,N
1547729355.9,286046999.4,N
1547729375.7,286046995.5,Y
1547729395.5,286046998.6,P
1547729415.4,286047001.0,N
1547729435.2,286047001.0,N
1547729455.1,286047001.2,N
1547729456.0,286047011.9,Y
1547729475.8,286047002.2,P
1547729495.6,286046999.7,N
1547729515.5,286046999.7,N
1547729535.3,286046999.7,N
1547729555.2,286046998.5,N
1547729575.9,286046998.5,N
1547729595.7,286047000.5,N
1547729615.6,286047000.0,N
1547729635.4,286047000.9,N
1547729655.2,286047003.9,Y
1547729675.1,286047003.1,P
1547729676.0,286047003.1,N
1547729695.8,286047003.9,N
1547729715.7,286047001.3,N
1547729735.5,286047001.9,N
1547729755.3,286047002.1,N
1547729775.2,286047004.1,Y
1547729795.0,286047002.2,P
1547729795.9,286047002.2,P
1547729815.7,286046999.7,P
1547729835.6,286047003.8,Y
1547729855.4,286047002.2,P
1547729875.3,286047004.2,P
1547729895.1,286047004.0,P
1547729896.0,286047004.0,Y
1547729915.8,286047000.9,P
1547729935.7,286046998.6,N
1547729955.5,286047000.4,N
1547729975.4,286047000.0,N
1547729995.2,286046999.1,N
